Apple

operational
NORAD ID: 12545 Int'l Des: 1981-057 Owner: ISRO Country: IN
HEOCIRCULAR

关于 Apple

正在加载描述...

实时位置

正在加载3D地球...

即将过境

高度历史

Altitude vs Time

uPlot chart will show altitude changes over time

两行轨道根数

1 12545U 81057B 26061.06877457 -.00000304 00000-0 00000+0 0 9994
2 12545 7.2790 297.6688 0022176 230.0296 321.9025 1.00040785121315
Epoch: Mar 2, 2026 • Age: 32 hours

当前状态

高度 35804.0 km
速度 3.08 km/s
星下点 -6.85°S, 55.67°W
发射日期 Jun 19, 1981
运行时间 44.7 years
类型 other

技术详情

分类 Payload
质量 331.00 kg
干质量 313.00 kg
总质量 670.00 kg
长度 1.50 m
直径 1.20 m
跨度 2.00 m
形状 Cyl + 2 Pan
制造商 ISAC
平台类型 Apple
阶段状态 In Orbit
所有者/国家 ISRO/IN

大型星座

Loading constellations...